owner,sensor,date,latitude,longitude,vertical_datum,sea_water_practical_salinity,qcFlag 
TCOON,ioos:station:TCOON:170:1,2015-10-01T00:30:00Z,27.2970,-97.4049,0.0,40.8,1111122 
TCOON,ioos:station:TCOON:170:1,2015-10-01T01:30:00Z,27.2970,-97.4049,0.0,40.7,1111122 
TCOON,ioos:station:TCOON:170:1,2015-10-01T03:30:00Z,27.2970,-97.4049,0.0,40.7,1111122 
TCOON,ioos:station:TCOON:170:1,2015-10-01T05:30:00Z,27.2970,-97.4049,0.0,40.6,1111122 
TCOON,ioos:station:TCOON:170:1,2015-10-01T06:30:00Z,27.2970,-97.4049,0.0,40.6,1111122 
TCOON,ioos:station:TCOON:170:1,2015-10-01T08:00:00Z,27.2970,-97.4049,0.0,40.6,1111122 
TCOON,ioos:station:TCOON:170:1,2015-10-01T08:30:00Z,27.2970,-97.4049,0.0,40.6,1111122 
TCOON,ioos:station:TCOON:170:1,2015-10-01T09:30:00Z,27.2970,-97.4049,0.0,40.6,1111122 
TCOON,ioos:station:TCOON:170:1,2015-10-01T10:30:00Z,27.2970,-97.4049,0.0,40.7,1111122 
TCOON,ioos:station:TCOON:170:1,2015-10-01T12:30:00Z,27.2970,-97.4049,0.0,40.8,1111122 
TCOON,ioos:station:TCOON:170:1,2015-10-01T13:30:00Z,27.2970,-97.4049,0.0,40.9,1111122 
TCOON,ioos:station:TCOON:170:1,2015-10-01T15:30:00Z,27.2970,-97.4049,0.0,40.8,1111122 
TCOON,ioos:station:TCOON:170:1,2015-10-01T18:30:00Z,27.2970,-97.4049,0.0,40.8,1111122 
TCOON,ioos:station:TCOON:170:1,2015-10-01T19:30:00Z,27.2970,-97.4049,0.0,40.7,1111122 
TCOON,ioos:station:TCOON:170:1,2015-10-01T20:30:00Z,27.2970,-97.4049,0.0,40.7,1111122 
TCOON,ioos:station:TCOON:170:1,2015-10-01T21:30:00Z,27.2970,-97.4049,0.0,40.8,1111122 
TCOON,ioos:station:TCOON:170:1,2015-10-01T22:30:00Z,27.2970,-97.4049,0.0,40.8,1111122 
TCOON,ioos:station:TCOON:170:1,2015-10-01T23:30:00Z,27.2970,-97.4049,0.0,40.7,1111122 
TCOON,ioos:station:TCOON:170:1,2015-10-02T00:30:00Z,27.2970,-97.4049,0.0,40.6,1111122 
TCOON,ioos:station:TCOON:170:1,2015-10-02T01:30:00Z,27.2970,-97.4049,0.0,40.6,1111122 
TCOON,ioos:station:TCOON:170:1,2015-10-02T02:30:00Z,27.2970,-97.4049,0.0,40.5,1111122 
TCOON,ioos:station:TCOON:170:1,2015-10-02T03:30:00Z,27.2970,-97.4049,0.0,40.5,1111122 
TCOON,ioos:station:TCOON:170:1,2015-10-02T04:30:00Z,27.2970,-97.4049,0.0,40.5,1111122 
TCOON,ioos:station:TCOON:170:1,2015-10-02T05:30:00Z,27.2970,-97.4049,0.0,40.5,1111122 
TCOON,ioos:station:TCOON:170:1,2015-10-02T06:30:00Z,27.2970,-97.4049,0.0,40.4,1111122 
TCOON,ioos:station:TCOON:170:1,2015-10-02T08:00:00Z,27.2970,-97.4049,0.0,40.4,1111122 
TCOON,ioos:station:TCOON:170:1,2015-10-02T08:30:00Z,27.2970,-97.4049,0.0,40.4,1111122 
TCOON,ioos:station:TCOON:170:1,2015-10-02T10:30:00Z,27.2970,-97.4049,0.0,40.5,1111122 
TCOON,ioos:station:TCOON:170:1,2015-10-02T11:30:00Z,27.2970,-97.4049,0.0,40.5,1111122 
TCOON,ioos:station:TCOON:170:1,2015-10-02T12:30:00Z,27.2970,-97.4049,0.0,40.6,1111122 
TCOON,ioos:station:TCOON:170:1,2015-10-02T13:30:00Z,27.2970,-97.4049,0.0,40.7,1111122 
TCOON,ioos:station:TCOON:170:1,2015-10-02T14:30:00Z,27.2970,-97.4049,0.0,40.8,1111122 
TCOON,ioos:station:TCOON:170:1,2015-10-02T15:30:00Z,27.2970,-97.4049,0.0,40.8,1111122 
TCOON,ioos:station:TCOON:170:1,2015-10-02T16:30:00Z,27.2970,-97.4049,0.0,40.8,1111122 
TCOON,ioos:station:TCOON:170:1,2015-10-02T17:30:00Z,27.2970,-97.4049,0.0,40.7,1111122 
TCOON,ioos:station:TCOON:170:1,2015-10-02T18:30:00Z,27.2970,-97.4049,0.0,40.7,1111122 
TCOON,ioos:station:TCOON:170:1,2015-10-02T19:30:00Z,27.2970,-97.4049,0.0,40.8,1111122 
TCOON,ioos:station:TCOON:170:1,2015-10-02T20:30:00Z,27.2970,-97.4049,0.0,40.8,1111122 
TCOON,ioos:station:TCOON:170:1,2015-10-02T21:30:00Z,27.2970,-97.4049,0.0,40.8,1111122 
TCOON,ioos:station:TCOON:170:1,2015-10-02T23:30:00Z,27.2970,-97.4049,0.0,41.0,1111122 
TCOON,ioos:station:TCOON:170:1,2015-10-03T00:30:00Z,27.2970,-97.4049,0.0,41.0,1111122 
TCOON,ioos:station:TCOON:170:1,2015-10-03T01:30:00Z,27.2970,-97.4049,0.0,40.3,1111122 
TCOON,ioos:station:TCOON:170:1,2015-10-03T02:30:00Z,27.2970,-97.4049,0.0,40.3,1111122 
TCOON,ioos:station:TCOON:170:1,2015-10-03T03:30:00Z,27.2970,-97.4049,0.0,40.7,1111122 
TCOON,ioos:station:TCOON:170:1,2015-10-03T04:30:00Z,27.2970,-97.4049,0.0,40.8,1111122 
TCOON,ioos:station:TCOON:170:1,2015-10-03T05:30:00Z,27.2970,-97.4049,0.0,40.8,1111122 
TCOON,ioos:station:TCOON:170:1,2015-10-03T06:30:00Z,27.2970,-97.4049,0.0,40.7,1111122 
TCOON,ioos:station:TCOON:170:1,2015-10-03T07:30:00Z,27.2970,-97.4049,0.0,40.7,1111122 
TCOON,ioos:station:TCOON:170:1,2015-10-03T09:30:00Z,27.2970,-97.4049,0.0,40.8,1111122 
TCOON,ioos:station:TCOON:170:1,2015-10-03T10:30:00Z,27.2970,-97.4049,0.0,40.9,1111122 
TCOON,ioos:station:TCOON:170:1,2015-10-03T11:30:00Z,27.2970,-97.4049,0.0,40.8,1111122 
TCOON,ioos:station:TCOON:170:1,2015-10-03T12:30:00Z,27.2970,-97.4049,0.0,40.8,1111122 
TCOON,ioos:station:TCOON:170:1,2015-10-03T14:30:00Z,27.2970,-97.4049,0.0,40.8,1111122 
TCOON,ioos:station:TCOON:170:1,2015-10-03T15:30:00Z,27.2970,-97.4049,0.0,40.7,1111122 
TCOON,ioos:station:TCOON:170:1,2015-10-03T16:30:00Z,27.2970,-97.4049,0.0,40.7,1111122 
TCOON,ioos:station:TCOON:170:1,2015-10-03T17:30:00Z,27.2970,-97.4049,0.0,40.7,1111122 
TCOON,ioos:station:TCOON:170:1,2015-10-03T18:30:00Z,27.2970,-97.4049,0.0,40.6,1111122 
TCOON,ioos:station:TCOON:170:1,2015-10-03T19:30:00Z,27.2970,-97.4049,0.0,40.7,1111122 
TCOON,ioos:station:TCOON:170:1,2015-10-03T21:30:00Z,27.2970,-97.4049,0.0,40.7,1111122 
TCOON,ioos:station:TCOON:170:1,2015-10-03T22:30:00Z,27.2970,-97.4049,0.0,40.8,1111122 
TCOON,ioos:station:TCOON:170:1,2015-10-03T23:30:00Z,27.2970,-97.4049,0.0,40.9,1111122 
TCOON,ioos:station:TCOON:170:1,2015-10-04T00:30:00Z,27.2970,-97.4049,0.0,41.0,1111122 
TCOON,ioos:station:TCOON:170:1,2015-10-04T01:30:00Z,27.2970,-97.4049,0.0,41.0,1111122 
TCOON,ioos:station:TCOON:170:1,2015-10-04T02:30:00Z,27.2970,-97.4049,0.0,41.0,1111122 
TCOON,ioos:station:TCOON:170:1,2015-10-04T03:30:00Z,27.2970,-97.4049,0.0,40.8,1111122 
TCOON,ioos:station:TCOON:170:1,2015-10-04T04:30:00Z,27.2970,-97.4049,0.0,40.4,1111122 
TCOON,ioos:station:TCOON:170:1,2015-10-04T05:30:00Z,27.2970,-97.4049,0.0,40.6,1111122 
TCOON,ioos:station:TCOON:170:1,2015-10-04T06:30:00Z,27.2970,-97.4049,0.0,40.9,1111122 
TCOON,ioos:station:TCOON:170:1,2015-10-04T08:00:00Z,27.2970,-97.4049,0.0,40.9,1111122 
TCOON,ioos:station:TCOON:170:1,2015-10-04T08:30:00Z,27.2970,-97.4049,0.0,40.8,1111122 
TCOON,ioos:station:TCOON:170:1,2015-10-04T11:30:00Z,27.2970,-97.4049,0.0,40.8,1111122 
TCOON,ioos:station:TCOON:170:1,2015-10-04T12:30:00Z,27.2970,-97.4049,0.0,40.8,1111122 
TCOON,ioos:station:TCOON:170:1,2015-10-04T14:30:00Z,27.2970,-97.4049,0.0,40.9,1111122 
TCOON,ioos:station:TCOON:170:1,2015-10-04T15:30:00Z,27.2970,-97.4049,0.0,41.1,1111122 
TCOON,ioos:station:TCOON:170:1,2015-10-04T16:30:00Z,27.2970,-97.4049,0.0,41.1,1111122 
TCOON,ioos:station:TCOON:170:1,2015-10-04T17:30:00Z,27.2970,-97.4049,0.0,41.0,1111122 
TCOON,ioos:station:TCOON:170:1,2015-10-04T18:30:00Z,27.2970,-97.4049,0.0,40.9,1111122 
TCOON,ioos:station:TCOON:170:1,2015-10-04T19:30:00Z,27.2970,-97.4049,0.0,40.9,1111122 
TCOON,ioos:station:TCOON:170:1,2015-10-04T20:30:00Z,27.2970,-97.4049,0.0,40.8,1111122 
TCOON,ioos:station:TCOON:170:1,2015-10-04T21:30:00Z,27.2970,-97.4049,0.0,40.8,1111122 
TCOON,ioos:station:TCOON:170:1,2015-10-04T22:30:00Z,27.2970,-97.4049,0.0,40.8,1111122 
TCOON,ioos:station:TCOON:170:1,2015-10-05T00:00:00Z,27.2970,-97.4049,0.0,40.8,1111122 
TCOON,ioos:station:TCOON:170:1,2015-10-05T01:30:00Z,27.2970,-97.4049,0.0,40.8,1111122 
TCOON,ioos:station:TCOON:170:1,2015-10-05T02:30:00Z,27.2970,-97.4049,0.0,40.4,1111122 
TCOON,ioos:station:TCOON:170:1,2015-10-05T03:30:00Z,27.2970,-97.4049,0.0,40.5,1111122 
TCOON,ioos:station:TCOON:170:1,2015-10-05T04:30:00Z,27.2970,-97.4049,0.0,40.9,1111122 
TCOON,ioos:station:TCOON:170:1,2015-10-05T05:30:00Z,27.2970,-97.4049,0.0,40.9,1111122 
TCOON,ioos:station:TCOON:170:1,2015-10-05T06:30:00Z,27.2970,-97.4049,0.0,40.7,1111122 
TCOON,ioos:station:TCOON:170:1,2015-10-05T08:00:00Z,27.2970,-97.4049,0.0,40.7,1111122 
TCOON,ioos:station:TCOON:170:1,2015-10-05T09:30:00Z,27.2970,-97.4049,0.0,40.6,1111122 
TCOON,ioos:station:TCOON:170:1,2015-10-05T10:30:00Z,27.2970,-97.4049,0.0,40.6,1111122 
TCOON,ioos:station:TCOON:170:1,2015-10-05T11:30:00Z,27.2970,-97.4049,0.0,40.6,1111122 
TCOON,ioos:station:TCOON:170:1,2015-10-05T12:30:00Z,27.2970,-97.4049,0.0,40.6,1111122 
TCOON,ioos:station:TCOON:170:1,2015-10-05T13:30:00Z,27.2970,-97.4049,0.0,40.6,1111122 
TCOON,ioos:station:TCOON:170:1,2015-10-05T14:30:00Z,27.2970,-97.4049,0.0,40.6,1111122 
TCOON,ioos:station:TCOON:170:1,2015-10-05T16:30:00Z,27.2970,-97.4049,0.0,40.7,1111122 
TCOON,ioos:station:TCOON:170:1,2015-10-05T17:30:00Z,27.2970,-97.4049,0.0,40.7,1111122 
TCOON,ioos:station:TCOON:170:1,2015-10-05T19:30:00Z,27.2970,-97.4049,0.0,40.7,1111122 
TCOON,ioos:station:TCOON:170:1,2015-10-05T20:30:00Z,27.2970,-97.4049,0.0,40.7,1111122 
TCOON,ioos:station:TCOON:170:1,2015-10-05T22:30:00Z,27.2970,-97.4049,0.0,40.8,1111122 
TCOON,ioos:station:TCOON:170:1,2015-10-05T23:30:00Z,27.2970,-97.4049,0.0,40.9,1111122 
TCOON,ioos:station:TCOON:170:1,2015-10-06T00:30:00Z,27.2970,-97.4049,0.0,40.9,1111122 
TCOON,ioos:station:TCOON:170:1,2015-10-06T01:30:00Z,27.2970,-97.4049,0.0,40.9,1111122 
TCOON,ioos:station:TCOON:170:1,2015-10-06T02:30:00Z,27.2970,-97.4049,0.0,41.2,1111122 
TCOON,ioos:station:TCOON:170:1,2015-10-06T03:30:00Z,27.2970,-97.4049,0.0,40.8,1111122 
TCOON,ioos:station:TCOON:170:1,2015-10-06T04:30:00Z,27.2970,-97.4049,0.0,40.8,1111122 
TCOON,ioos:station:TCOON:170:1,2015-10-06T05:30:00Z,27.2970,-97.4049,0.0,40.9,1111122 
TCOON,ioos:station:TCOON:170:1,2015-10-06T06:30:00Z,27.2970,-97.4049,0.0,40.8,1111122 
TCOON,ioos:station:TCOON:170:1,2015-10-06T08:00:00Z,27.2970,-97.4049,0.0,40.7,1111122 
TCOON,ioos:station:TCOON:170:1,2015-10-06T08:30:00Z,27.2970,-97.4049,0.0,40.7,1111122 
TCOON,ioos:station:TCOON:170:1,2015-10-06T10:30:00Z,27.2970,-97.4049,0.0,40.7,1111122 
TCOON,ioos:station:TCOON:170:1,2015-10-06T11:30:00Z,27.2970,-97.4049,0.0,40.7,1111122 
TCOON,ioos:station:TCOON:170:1,2015-10-06T12:30:00Z,27.2970,-97.4049,0.0,40.8,1111122 
TCOON,ioos:station:TCOON:170:1,2015-10-06T13:30:00Z,27.2970,-97.4049,0.0,40.7,1111122 
TCOON,ioos:station:TCOON:170:1,2015-10-06T14:30:00Z,27.2970,-97.4049,0.0,40.8,1111122 
TCOON,ioos:station:TCOON:170:1,2015-10-06T15:30:00Z,27.2970,-97.4049,0.0,40.7,1111122 
TCOON,ioos:station:TCOON:170:1,2015-10-06T16:30:00Z,27.2970,-97.4049,0.0,40.7,1111122 
TCOON,ioos:station:TCOON:170:1,2015-10-06T17:30:00Z,27.2970,-97.4049,0.0,40.7,1111122 
TCOON,ioos:station:TCOON:170:1,2015-10-06T19:30:00Z,27.2970,-97.4049,0.0,40.7,1111122 
TCOON,ioos:station:TCOON:170:1,2015-10-06T20:30:00Z,27.2970,-97.4049,0.0,40.8,1111122 
TCOON,ioos:station:TCOON:170:1,2015-10-06T21:30:00Z,27.2970,-97.4049,0.0,40.8,1111122 
TCOON,ioos:station:TCOON:170:1,2015-10-06T23:00:00Z,27.2970,-97.4049,0.0,40.8,1111122 
TCOON,ioos:station:TCOON:170:1,2015-10-06T23:30:00Z,27.2970,-97.4049,0.0,40.8,1111122 
TCOON,ioos:station:TCOON:170:1,2015-10-07T00:30:00Z,27.2970,-97.4049,0.0,40.7,1111122 
TCOON,ioos:station:TCOON:170:1,2015-10-07T04:30:00Z,27.2970,-97.4049,0.0,40.9,1111122 
TCOON,ioos:station:TCOON:170:1,2015-10-07T05:30:00Z,27.2970,-97.4049,0.0,40.8,1111122 
TCOON,ioos:station:TCOON:170:1,2015-10-07T07:30:00Z,27.2970,-97.4049,0.0,40.8,1111122 
TCOON,ioos:station:TCOON:170:1,2015-10-07T08:30:00Z,27.2970,-97.4049,0.0,40.8,1111122 
TCOON,ioos:station:TCOON:170:1,2015-10-07T09:30:00Z,27.2970,-97.4049,0.0,40.8,1111122 
TCOON,ioos:station:TCOON:170:1,2015-10-07T10:30:00Z,27.2970,-97.4049,0.0,40.8,1111122 
TCOON,ioos:station:TCOON:170:1,2015-10-07T12:30:00Z,27.2970,-97.4049,0.0,40.7,1111122 
TCOON,ioos:station:TCOON:170:1,2015-10-07T13:30:00Z,27.2970,-97.4049,0.0,40.7,1111122 
TCOON,ioos:station:TCOON:170:1,2015-10-07T14:30:00Z,27.2970,-97.4049,0.0,40.6,1111122 
TCOON,ioos:station:TCOON:170:1,2015-10-07T19:30:00Z,27.2970,-97.4049,0.0,40.8,1111122 
TCOON,ioos:station:TCOON:170:1,2015-10-07T20:30:00Z,27.2970,-97.4049,0.0,40.8,1111122 
TCOON,ioos:station:TCOON:170:1,2015-10-07T21:30:00Z,27.2970,-97.4049,0.0,40.7,1111122 
TCOON,ioos:station:TCOON:170:1,2015-10-07T22:30:00Z,27.2970,-97.4049,0.0,40.9,1111122 
TCOON,ioos:station:TCOON:170:1,2015-10-07T23:30:00Z,27.2970,-97.4049,0.0,40.8,1111122 
TCOON,ioos:station:TCOON:170:1,2015-10-08T00:30:00Z,27.2970,-97.4049,0.0,40.7,1111122 
TCOON,ioos:station:TCOON:170:1,2015-10-08T01:30:00Z,27.2970,-97.4049,0.0,40.6,1111122 
TCOON,ioos:station:TCOON:170:1,2015-10-08T02:30:00Z,27.2970,-97.4049,0.0,40.8,1111122 
TCOON,ioos:station:TCOON:170:1,2015-10-08T03:30:00Z,27.2970,-97.4049,0.0,40.8,1111122 
TCOON,ioos:station:TCOON:170:1,2015-10-08T04:30:00Z,27.2970,-97.4049,0.0,40.8,1111122 
TCOON,ioos:station:TCOON:170:1,2015-10-08T05:30:00Z,27.2970,-97.4049,0.0,40.7,1111122 
TCOON,ioos:station:TCOON:170:1,2015-10-08T06:30:00Z,27.2970,-97.4049,0.0,40.5,1111122 
TCOON,ioos:station:TCOON:170:1,2015-10-08T08:00:00Z,27.2970,-97.4049,0.0,40.4,1111122 
TCOON,ioos:station:TCOON:170:1,2015-10-08T08:30:00Z,27.2970,-97.4049,0.0,40.4,1111122 
TCOON,ioos:station:TCOON:170:1,2015-10-08T09:30:00Z,27.2970,-97.4049,0.0,40.4,1111122 
TCOON,ioos:station:TCOON:170:1,2015-10-08T10:30:00Z,27.2970,-97.4049,0.0,40.4,1111122 
TCOON,ioos:station:TCOON:170:1,2015-10-08T11:30:00Z,27.2970,-97.4049,0.0,40.4,1111122 
TCOON,ioos:station:TCOON:170:1,2015-10-08T12:30:00Z,27.2970,-97.4049,0.0,40.3,1111122 
TCOON,ioos:station:TCOON:170:1,2015-10-08T13:30:00Z,27.2970,-97.4049,0.0,40.3,1111122 
TCOON,ioos:station:TCOON:170:1,2015-10-08T14:30:00Z,27.2970,-97.4049,0.0,40.3,1111122 
TCOON,ioos:station:TCOON:170:1,2015-10-08T15:30:00Z,27.2970,-97.4049,0.0,40.3,1111122 
TCOON,ioos:station:TCOON:170:1,2015-10-08T16:30:00Z,27.2970,-97.4049,0.0,40.3,1111122 
TCOON,ioos:station:TCOON:170:1,2015-10-08T17:30:00Z,27.2970,-97.4049,0.0,40.2,1111122 
TCOON,ioos:station:TCOON:170:1,2015-10-08T19:30:00Z,27.2970,-97.4049,0.0,40.3,1111122 
TCOON,ioos:station:TCOON:170:1,2015-10-08T20:30:00Z,27.2970,-97.4049,0.0,40.2,1111122 
TCOON,ioos:station:TCOON:170:1,2015-10-08T21:30:00Z,27.2970,-97.4049,0.0,40.1,1111122 
TCOON,ioos:station:TCOON:170:1,2015-10-08T22:30:00Z,27.2970,-97.4049,0.0,40.2,1111122 
TCOON,ioos:station:TCOON:170:1,2015-10-08T23:30:00Z,27.2970,-97.4049,0.0,40.2,1111122 
TCOON,ioos:station:TCOON:170:1,2015-10-09T00:30:00Z,27.2970,-97.4049,0.0,40.2,1111122 
TCOON,ioos:station:TCOON:170:1,2015-10-09T01:30:00Z,27.2970,-97.4049,0.0,40.3,1111122 
TCOON,ioos:station:TCOON:170:1,2015-10-09T03:30:00Z,27.2970,-97.4049,0.0,40.4,1111122 
TCOON,ioos:station:TCOON:170:1,2015-10-09T04:30:00Z,27.2970,-97.4049,0.0,40.3,1111122 
TCOON,ioos:station:TCOON:170:1,2015-10-09T05:30:00Z,27.2970,-97.4049,0.0,40.3,1111122 
TCOON,ioos:station:TCOON:170:1,2015-10-09T06:30:00Z,27.2970,-97.4049,0.0,40.3,1111122 
TCOON,ioos:station:TCOON:170:1,2015-10-09T08:00:00Z,27.2970,-97.4049,0.0,40.3,1111122 
TCOON,ioos:station:TCOON:170:1,2015-10-09T08:30:00Z,27.2970,-97.4049,0.0,40.3,1111122 
TCOON,ioos:station:TCOON:170:1,2015-10-09T09:30:00Z,27.2970,-97.4049,0.0,40.3,1111122 
TCOON,ioos:station:TCOON:170:1,2015-10-09T10:30:00Z,27.2970,-97.4049,0.0,40.3,1111122 
TCOON,ioos:station:TCOON:170:1,2015-10-09T12:30:00Z,27.2970,-97.4049,0.0,40.3,1111122 
TCOON,ioos:station:TCOON:170:1,2015-10-09T13:30:00Z,27.2970,-97.4049,0.0,40.3,1111122 
TCOON,ioos:station:TCOON:170:1,2015-10-09T14:30:00Z,27.2970,-97.4049,0.0,40.3,1111122 
TCOON,ioos:station:TCOON:170:1,2015-10-09T16:30:00Z,27.2970,-97.4049,0.0,40.3,1111122 
TCOON,ioos:station:TCOON:170:1,2015-10-09T18:30:00Z,27.2970,-97.4049,0.0,40.3,1111122 
TCOON,ioos:station:TCOON:170:1,2015-10-09T19:30:00Z,27.2970,-97.4049,0.0,40.4,1111122 
TCOON,ioos:station:TCOON:170:1,2015-10-09T20:30:00Z,27.2970,-97.4049,0.0,40.2,1111122 
TCOON,ioos:station:TCOON:170:1,2015-10-09T22:30:00Z,27.2970,-97.4049,0.0,40.2,1111122 
TCOON,ioos:station:TCOON:170:1,2015-10-11T04:30:00Z,27.2970,-97.4049,0.0,40.3,1111122 
TCOON,ioos:station:TCOON:170:1,2015-10-11T05:30:00Z,27.2970,-97.4049,0.0,40.2,1111122 
TCOON,ioos:station:TCOON:170:1,2015-10-11T06:30:00Z,27.2970,-97.4049,0.0,40.2,1111122 
TCOON,ioos:station:TCOON:170:1,2015-10-11T10:30:00Z,27.2970,-97.4049,0.0,40.3,1111122 
TCOON,ioos:station:TCOON:170:1,2015-10-11T11:30:00Z,27.2970,-97.4049,0.0,40.3,1111122 
TCOON,ioos:station:TCOON:170:1,2015-10-11T12:30:00Z,27.2970,-97.4049,0.0,40.3,1111122 
TCOON,ioos:station:TCOON:170:1,2015-10-11T13:30:00Z,27.2970,-97.4049,0.0,40.3,1111122 
TCOON,ioos:station:TCOON:170:1,2015-10-11T14:30:00Z,27.2970,-97.4049,0.0,40.3,1111122 
TCOON,ioos:station:TCOON:170:1,2015-10-11T15:30:00Z,27.2970,-97.4049,0.0,40.3,1111122 
TCOON,ioos:station:TCOON:170:1,2015-10-11T16:30:00Z,27.2970,-97.4049,0.0,40.3,1111122 
TCOON,ioos:station:TCOON:170:1,2015-10-11T17:30:00Z,27.2970,-97.4049,0.0,40.3,1111122 
TCOON,ioos:station:TCOON:170:1,2015-10-11T18:30:00Z,27.2970,-97.4049,0.0,40.1,1111122 
TCOON,ioos:station:TCOON:170:1,2015-10-11T19:30:00Z,27.2970,-97.4049,0.0,40.2,1111122 
TCOON,ioos:station:TCOON:170:1,2015-10-11T20:30:00Z,27.2970,-97.4049,0.0,40.1,1111122 
TCOON,ioos:station:TCOON:170:1,2015-10-11T21:30:00Z,27.2970,-97.4049,0.0,40.1,1111122 
TCOON,ioos:station:TCOON:170:1,2015-10-11T22:30:00Z,27.2970,-97.4049,0.0,40.1,1111122 
TCOON,ioos:station:TCOON:170:1,2015-10-11T23:30:00Z,27.2970,-97.4049,0.0,40.2,1111122 
TCOON,ioos:station:TCOON:170:1,2015-10-12T00:30:00Z,27.2970,-97.4049,0.0,40.2,1111122 
TCOON,ioos:station:TCOON:170:1,2015-10-12T01:30:00Z,27.2970,-97.4049,0.0,40.2,1111122 
TCOON,ioos:station:TCOON:170:1,2015-10-12T02:30:00Z,27.2970,-97.4049,0.0,40.0,1111122 
TCOON,ioos:station:TCOON:170:1,2015-10-12T03:30:00Z,27.2970,-97.4049,0.0,40.0,1111122 
TCOON,ioos:station:TCOON:170:1,2015-10-12T04:30:00Z,27.2970,-97.4049,0.0,40.1,1111122 
TCOON,ioos:station:TCOON:170:1,2015-10-12T05:30:00Z,27.2970,-97.4049,0.0,40.1,1111122 
TCOON,ioos:station:TCOON:170:1,2015-10-12T06:30:00Z,27.2970,-97.4049,0.0,40.1,1111122 
TCOON,ioos:station:TCOON:170:1,2015-10-12T08:00:00Z,27.2970,-97.4049,0.0,40.1,1111122 
TCOON,ioos:station:TCOON:170:1,2015-10-12T09:30:00Z,27.2970,-97.4049,0.0,40.1,1111122 
TCOON,ioos:station:TCOON:170:1,2015-10-12T10:30:00Z,27.2970,-97.4049,0.0,40.1,1111122 
TCOON,ioos:station:TCOON:170:1,2015-10-12T11:30:00Z,27.2970,-97.4049,0.0,40.2,1111122 
TCOON,ioos:station:TCOON:170:1,2015-10-12T12:30:00Z,27.2970,-97.4049,0.0,40.2,1111122 
TCOON,ioos:station:TCOON:170:1,2015-10-12T13:30:00Z,27.2970,-97.4049,0.0,40.1,1111122 
TCOON,ioos:station:TCOON:170:1,2015-10-12T14:30:00Z,27.2970,-97.4049,0.0,40.0,1111122 
TCOON,ioos:station:TCOON:170:1,2015-10-12T15:30:00Z,27.2970,-97.4049,0.0,40.0,1111122 
TCOON,ioos:station:TCOON:170:1,2015-10-12T16:30:00Z,27.2970,-97.4049,0.0,39.9,1111122 
TCOON,ioos:station:TCOON:170:1,2015-10-12T17:30:00Z,27.2970,-97.4049,0.0,40.0,1111122 
TCOON,ioos:station:TCOON:170:1,2015-10-12T18:30:00Z,27.2970,-97.4049,0.0,40.2,1111122 
TCOON,ioos:station:TCOON:170:1,2015-10-12T19:30:00Z,27.2970,-97.4049,0.0,40.2,1111122 
TCOON,ioos:station:TCOON:170:1,2015-10-12T20:30:00Z,27.2970,-97.4049,0.0,40.2,1111122 
TCOON,ioos:station:TCOON:170:1,2015-10-12T21:30:00Z,27.2970,-97.4049,0.0,40.5,1111122 
TCOON,ioos:station:TCOON:170:1,2015-10-12T22:30:00Z,27.2970,-97.4049,0.0,40.7,1111122 
TCOON,ioos:station:TCOON:170:1,2015-10-12T23:30:00Z,27.2970,-97.4049,0.0,40.7,1111122 
TCOON,ioos:station:TCOON:170:1,2015-10-13T00:30:00Z,27.2970,-97.4049,0.0,40.9,1111122 
TCOON,ioos:station:TCOON:170:1,2015-10-13T03:30:00Z,27.2970,-97.4049,0.0,41.2,1111122 
TCOON,ioos:station:TCOON:170:1,2015-10-13T04:30:00Z,27.2970,-97.4049,0.0,41.1,1111122 
TCOON,ioos:station:TCOON:170:1,2015-10-13T05:30:00Z,27.2970,-97.4049,0.0,41.0,1111122 
TCOON,ioos:station:TCOON:170:1,2015-10-13T06:30:00Z,27.2970,-97.4049,0.0,40.9,1111122 
TCOON,ioos:station:TCOON:170:1,2015-10-13T08:00:00Z,27.2970,-97.4049,0.0,40.6,1111122 
TCOON,ioos:station:TCOON:170:1,2015-10-13T08:30:00Z,27.2970,-97.4049,0.0,40.5,1111122 
TCOON,ioos:station:TCOON:170:1,2015-10-13T09:30:00Z,27.2970,-97.4049,0.0,40.5,1111122 
TCOON,ioos:station:TCOON:170:1,2015-10-13T10:30:00Z,27.2970,-97.4049,0.0,40.5,1111122 
TCOON,ioos:station:TCOON:170:1,2015-10-13T11:30:00Z,27.2970,-97.4049,0.0,40.3,1111122 
TCOON,ioos:station:TCOON:170:1,2015-10-13T12:30:00Z,27.2970,-97.4049,0.0,40.3,1111122 
TCOON,ioos:station:TCOON:170:1,2015-10-13T15:30:00Z,27.2970,-97.4049,0.0,40.3,1111122 
TCOON,ioos:station:TCOON:170:1,2015-10-13T16:30:00Z,27.2970,-97.4049,0.0,40.3,1111122 
TCOON,ioos:station:TCOON:170:1,2015-10-14T20:30:00Z,27.2970,-97.4049,0.0,37.6,1111122 
TCOON,ioos:station:TCOON:170:1,2015-10-14T21:30:00Z,27.2970,-97.4049,0.0,37.6,1111122 
TCOON,ioos:station:TCOON:170:1,2015-10-14T22:30:00Z,27.2970,-97.4049,0.0,37.7,1111122 
TCOON,ioos:station:TCOON:170:1,2015-10-15T00:30:00Z,27.2970,-97.4049,0.0,37.1,1111122 
TCOON,ioos:station:TCOON:170:1,2015-10-15T01:30:00Z,27.2970,-97.4049,0.0,37.3,1111122 
TCOON,ioos:station:TCOON:170:1,2015-10-15T02:30:00Z,27.2970,-97.4049,0.0,37.2,1111122 
TCOON,ioos:station:TCOON:170:1,2015-10-15T04:30:00Z,27.2970,-97.4049,0.0,37.1,1111122 
TCOON,ioos:station:TCOON:170:1,2015-10-15T05:30:00Z,27.2970,-97.4049,0.0,37.2,1111122 
TCOON,ioos:station:TCOON:170:1,2015-10-15T06:30:00Z,27.2970,-97.4049,0.0,37.6,1111122 
TCOON,ioos:station:TCOON:170:1,2015-10-15T08:00:00Z,27.2970,-97.4049,0.0,37.4,1111122 
TCOON,ioos:station:TCOON:170:1,2015-10-15T08:30:00Z,27.2970,-97.4049,0.0,37.4,1111122 
TCOON,ioos:station:TCOON:170:1,2015-10-15T09:30:00Z,27.2970,-97.4049,0.0,37.6,1111122 
TCOON,ioos:station:TCOON:170:1,2015-10-15T10:30:00Z,27.2970,-97.4049,0.0,37.5,1111122 
TCOON,ioos:station:TCOON:170:1,2015-10-15T11:30:00Z,27.2970,-97.4049,0.0,37.6,1111122 
TCOON,ioos:station:TCOON:170:1,2015-10-15T12:30:00Z,27.2970,-97.4049,0.0,38.3,1111122 
TCOON,ioos:station:TCOON:170:1,2015-10-15T14:30:00Z,27.2970,-97.4049,0.0,37.8,1111122 
TCOON,ioos:station:TCOON:170:1,2015-10-15T15:30:00Z,27.2970,-97.4049,0.0,37.9,1111122 
TCOON,ioos:station:TCOON:170:1,2015-10-15T16:30:00Z,27.2970,-97.4049,0.0,39.4,1111122 
TCOON,ioos:station:TCOON:170:1,2015-10-15T17:30:00Z,27.2970,-97.4049,0.0,39.0,1111122 
TCOON,ioos:station:TCOON:170:1,2015-10-15T18:30:00Z,27.2970,-97.4049,0.0,39.1,1111122 
TCOON,ioos:station:TCOON:170:1,2015-10-15T19:30:00Z,27.2970,-97.4049,0.0,39.1,1111122 
TCOON,ioos:station:TCOON:170:1,2015-10-15T20:30:00Z,27.2970,-97.4049,0.0,39.2,1111122 
TCOON,ioos:station:TCOON:170:1,2015-10-15T21:30:00Z,27.2970,-97.4049,0.0,39.2,1111122 
TCOON,ioos:station:TCOON:170:1,2015-10-15T22:30:00Z,27.2970,-97.4049,0.0,39.3,1111122 
TCOON,ioos:station:TCOON:170:1,2015-10-15T23:30:00Z,27.2970,-97.4049,0.0,39.3,1111122 
TCOON,ioos:station:TCOON:170:1,2015-10-16T00:30:00Z,27.2970,-97.4049,0.0,39.3,1111122 
TCOON,ioos:station:TCOON:170:1,2015-10-16T01:30:00Z,27.2970,-97.4049,0.0,39.2,1111122 
TCOON,ioos:station:TCOON:170:1,2015-10-16T02:30:00Z,27.2970,-97.4049,0.0,39.2,1111122 
TCOON,ioos:station:TCOON:170:1,2015-10-16T03:30:00Z,27.2970,-97.4049,0.0,39.2,1111122 
TCOON,ioos:station:TCOON:170:1,2015-10-16T04:30:00Z,27.2970,-97.4049,0.0,39.2,1111122 
TCOON,ioos:station:TCOON:170:1,2015-10-16T05:30:00Z,27.2970,-97.4049,0.0,39.3,1111122 
TCOON,ioos:station:TCOON:170:1,2015-10-16T06:30:00Z,27.2970,-97.4049,0.0,39.3,1111122 
TCOON,ioos:station:TCOON:170:1,2015-10-16T09:30:00Z,27.2970,-97.4049,0.0,39.3,1111122 
TCOON,ioos:station:TCOON:170:1,2015-10-16T10:30:00Z,27.2970,-97.4049,0.0,39.3,1111122 
TCOON,ioos:station:TCOON:170:1,2015-10-16T11:30:00Z,27.2970,-97.4049,0.0,39.4,1111122 
TCOON,ioos:station:TCOON:170:1,2015-10-16T12:30:00Z,27.2970,-97.4049,0.0,39.4,1111122 
TCOON,ioos:station:TCOON:170:1,2015-10-16T13:30:00Z,27.2970,-97.4049,0.0,39.3,1111122 
TCOON,ioos:station:TCOON:170:1,2015-10-16T15:30:00Z,27.2970,-97.4049,0.0,39.3,1111122 
TCOON,ioos:station:TCOON:170:1,2015-10-16T16:30:00Z,27.2970,-97.4049,0.0,39.3,1111122 
TCOON,ioos:station:TCOON:170:1,2015-10-16T17:30:00Z,27.2970,-97.4049,0.0,39.4,1111122 
TCOON,ioos:station:TCOON:170:1,2015-10-16T18:30:00Z,27.2970,-97.4049,0.0,39.4,1111122 
TCOON,ioos:station:TCOON:170:1,2015-10-16T19:30:00Z,27.2970,-97.4049,0.0,39.4,1111122 